Tracking 29932 objects as of 3-Dec-2024
HD Live streaming from Space Station
objects crossing your sky now

STARLINK-30322

Track STARLINK-30322 now!
10-day predictions
STARLINK-30322 is classified as:


NORAD ID: 57670
Int'l Code: 2023-124H
Perigee: 469.8 km
Apogee: 470.8 km
Inclination: 53.2 °
Period: 93.9 minutes
Semi major axis: 6841 km
RCS: Unknown
Launch date: August 22, 2023
Source: United States (US)
Launch site: AIR FORCE WESTERN TEST RANGE (AFWTR)
Your satellite tracking list
Your tracking list is empty




NASA's NSSDC Master Catalog

Two Line Element Set (TLE):
1 57670U 23124H   24337.88623197  .00013576  00000-0  41422-3 0  9998
2 57670  53.1582 194.4878 0000719 301.1369  58.9563 15.34243605 72459
Source of the keplerian elements: AFSPC